Regional Weather Roundup
Issued by NWS

Home | Current Version | Previous Version | Graphics & Text | Print | Product List | Glossary On
Versions: 1 2 3 4 5 6 7 8 9 10 11 12 13 14 15 16 17 18 19 20 21 22 23 24 25 26 27 28 29 30 31 32 33 34 35 36 37 38 39 40 41 42 43 44 45 46 47 48 49 50
259
ASUS45 KTFX 041310
RWRMT
MONTANA REGIONAL WEATHER ROUNDUP
NATIONAL WEATHER SERVICE GREAT FALLS MT
600 AM MST SUN DEC 04 2016

NOTE: "FAIR" INDICATES FEW OR NO CLOUDS BELOW 12000 FEET WITH NO
SIGNIFICANT WEATHER AND/OR OBSTRUCTIONS TO VISIBILITY.

MTZ001>007-043-041400-
WEST OF THE DIVIDE

CITY           SKY/WX    TMP DP  RH WIND       PRES   REMARKS
KALISPELL      CLOUDY    35  31  85 S12       29.72F WCI  27
MISSOULA       CLOUDY    34  28  79 SE3       29.83F
BUTTE          CLOUDY    30  15  53 CALM      29.83F
MULLAN PASS      N/A     24  22  91 MISG      29.68F
ANACONDA         N/A     30  18  59 S9G18     29.81F WCI  22
DEER LODGE       N/A     30  19  64 S12G23    29.82F WCI  21
EUREKA           N/A     36  30  80 SE12G20   29.68F WCI  27
HAMILTON         N/A     36  27  69 S13       29.85F WCI  27
LIBBY            N/A     34  34 100 SE3       29.70F
PLAINS           N/A     35  30  82 CALM      29.80F
THOMPSON FALLS   N/A     35  32  89 CALM      29.84F
$$

MTZ008-052>055-041400-
SOUTHWEST MONTANA

CITY           SKY/WX    TMP DP  RH WIND       PRES   REMARKS
BOZEMAN        CLOUDY    32  16  51 S5        29.85F
DILLON         CLOUDY    22  13  68 S8        29.86F WCI  12
W YELLOWSTONE  LGT SNOW  21  19  93 SW12G22   29.93F WCI   9
ENNIS          CLOUDY    27  18  69 S22G29    29.93F WCI  12
THREE FORKS      N/A     35  35 100 SW10      29.85F WCI  27
TWIN BRIDGES     N/A     23  11  60 SE3       29.87F
$$

MTZ009-010-012-014-046-048-049-054-041400-
EAST SLOPES AND CENTRAL MONTANA

CITY           SKY/WX    TMP DP  RH WIND       PRES   REMARKS
CUT BANK       MOCLDY    29  21  72 SW13      29.63F WCI  19
GREAT FALLS    CLOUDY    32  20  61 SW17      29.72F WCI  21
MALMSTROM AFB  CLOUDY    32  22  67 SW15      29.73F WCI  21
HELENA         CLOUDY    36  18  48 W6        29.80F WCI  31
AUGUSTA          N/A     31  21  65 W28G33    29.67F WCI  17
BOWMANS CRNR   MOCLDY    31  22  67 SW23G36   29.69F WCI  18
CHOTEAU          N/A     32  19  59 SW12      29.69F WCI  23
CONRAD           N/A     31  23  72 S14       29.71F WCI  21
FAIRFIELD        N/A     29  18  64 SE5       29.69F
POWER            N/A     30  20  66 SW16      29.70F WCI  19
RAYNESFORD     MOCLDY    36  19  50 SW23G31   29.73F WCI  24
ULM              N/A     30  21  68 W5        29.74F
$$

MTZ011-013-016-021-045-047-050-051-041400-
NORTH CENTRAL MONTANA

CITY           SKY/WX    TMP DP  RH WIND       PRES   REMARKS
HAVRE          CLEAR     31  22  69 SW12      29.71F WCI  22
LEWISTOWN      CLOUDY    28  18  66 SW14      29.75F WCI  17
N BAR RANCH      N/A     32  12  43 W12G23    29.75F WCI  23
CHINOOK          N/A     28  19  69 NW3       29.72F
DENTON         MOCLDY    29  20  69 SW17G30   29.70F WCI  16
GEYSER         MOCLDY    31  19  60 W17       29.72F WCI  19
GRASS RANGE      N/A     28  19  70 W17       29.73F WCI  16
JUDITH GAP     MOCLDY    29  17  59 SW16G23   29.75F WCI  18
ROY              N/A     33  18  52 MISG      29.72F
STANFORD         N/A     33  17  52 W18G29    29.72F WCI  21
WINIFRED         N/A     31  19  61 MISG      29.73F
$$

MTZ017>020-022>027-061-062-041400-
NORTHEAST MONTANA

CITY           SKY/WX    TMP DP  RH WIND       PRES   REMARKS
GLASGOW        PTCLDY    18  15  88 S8        29.75F WCI   8
JORDAN           N/A     16  12  84 CALM      29.78F
SIDNEY         CLEAR     20  18  92 S13       29.78S WCI   7
WOLF POINT     CLEAR     22  19  89 W7        29.78F WCI  13
PLENTYWOOD       N/A     21  19  93 W7        29.73S WCI  13
POPLAR           N/A     23  19  86 W5        29.78S
SCOBEY           N/A     16   5  61 CALM      29.73F
$$

MTZ028>42-056>058-041400-
SOUTHCENTRAL AND SOUTHEAST MONTANA

CITY           SKY/WX    TMP DP  RH WIND       PRES   REMARKS
BAKER          CLEAR     19  13  77 CALM      29.82F
BILLINGS       CLOUDY    32  15  49 SW16      29.82F WCI  21
LIVINGSTON     CLOUDY    34  17  50 SW25G38   29.82F WCI  21
MILES CITY     CLOUDY    28  18  66 SW8       29.81F WCI  20
BIG TIMBER     PTCLDY    34  16  47 W15G24    29.82F WCI  24
EKALAKA          N/A     29  18  63 SW8       29.80F WCI  21
FORSYTH          N/A     30  18  59 SW5       29.81F
HARLOWTON      MOCLDY    32  16  51 W9        29.77F WCI  24
LAUREL           N/A     31  10  41 S7        29.83F WCI  24
ROUNDUP          N/A     29  14  53 S7        29.73F WCI  22
$$

REGIONAL REPORTS...DAKOTAS

CITY           SKY/WX    TMP DP  RH WIND       PRES   REMARKS
WILLISTON      CLEAR     21  18  88 SW7       29.76S WCI  12
MINOT          CLOUDY    27  24  89 W14       29.70S WCI  16
DICKINSON      CLEAR     20  16  84 W14       29.75F WCI   7
BEACH            N/A     23  18  80 SW10      29.81F WCI  12
CROSBY         MOCLDY    21  21 100 W9        29.74R WCI  11
TIOGA          CLOUDY    28  28 100 NW15      29.72F WCI  17
WATFORD CITY     N/A     18  18 100 SW8       29.76S WCI   7
BISMARCK       CLOUDY    32  28  85 W13G21    29.76S WCI  22
GRAND FORKS    CLOUDY    34  32  92 S14       29.71  WCI  25
FARGO          LGT SNOW  34  32  92 S10       29.75F FOG     WCI  26
BUFFALO SD       N/A     30  22  72 W17       29.76S WCI  18
RAPID CITY     PTCLDY    22  16  78 NW8       29.88F WCI  12
$$

REGIONAL REPORTS...WYOMING/IDAHO/WASHINGTON

CITY           SKY/WX    TMP DP  RH WIND       PRES   REMARKS
GILLETTE       CLEAR     27  13  55 SW17      29.86F WCI  14
SHERIDAN       CLOUDY    25  15  66 S8        29.84F WCI  16
BUFFALO WY     CLOUDY    28  11  48 SW5       29.85F
CODY           CLOUDY    34  19  54 W17       29.85F WCI  23
YELLOWSTONE LA   N/A     20  17  88 VRB6      29.91F WCI  12
IDAHO FALLS    CLOUDY    30  23  75 SW9       30.04F WCI  22
SALMON         CLOUDY    27  19  74 N5        29.93F
BOISE          CLOUDY    40  28  62 SE10      30.02F
SPOKANE        CLOUDY    37  32  82 SW23      29.78S WCI  26
$$

REGIONAL REPORTS...ALBERTA

CITY           SKY/WX    TMP DP  RH WIND       PRES   REMARKS
EDMONTON       CLEAR     19  12  73 W10       29.62F WCI   8
CALGARY        MOCLDY    21  16  79 N9        29.59F WCI  11
LETHBRIDGE     CLOUDY    27  21  80 E5        29.59F
MEDICINE HAT   CLEAR     23  19  86 SW6       29.64F WCI  16
WATERTON GATE    N/A     30  27  86 SW14G23     N/A  WCI  20
CARDSTON         N/A     32  23  69 SW6         N/A  WCI  26
MILK RIVER       N/A     28  23  80 S7          N/A  WCI  21
$$

REGIONAL REPORTS...SASKATCHEWAN

CITY           SKY/WX    TMP DP  RH WIND       PRES   REMARKS
SWIFT CURRENT  CLOUDY    19  16  86 SW12      29.63F WCI   7
REGINA         FOG       23  21  93 SW5       29.69S VSB 1/4
SASKATOON      PTCLDY    16  12  86 SW6       29.67S WCI   7
CYPRESS HILLS    N/A     19  14  79 S3          N/A
VAL MARIE        N/A     12   9  85 E5          N/A
ROCKGLEN         N/A     19  16  86 W9          N/A  WCI   9
ASSINIBOIA       N/A     19  14  79 SW10        N/A  WCI   8
$$




USA.gov is the U.S. government's official web portal to all federal, state and local government web resources and services.